EST,Max TemperatureF,Mean TemperatureF,Min TemperatureF,Max Dew PointF,MeanDew PointF,Min DewpointF,Max Humidity, Mean Humidity, Min Humidity, Max Sea Level PressureIn, Mean Sea Level PressureIn, Min Sea Level PressureIn, Max VisibilityMiles, Mean VisibilityMiles, Min VisibilityMiles, Max Wind SpeedMPH, Mean Wind SpeedMPH, Max Gust SpeedMPH,PrecipitationIn, CloudCover, Events, WindDirDegrees
2012-11-1,53,46,39,34,27,16,76,53,22,29.96,29.91,29.87,10,10,10,13,6,20,0.00,2,,262
2012-11-2,59,47,35,36,33,28,87,62,31,30.07,29.96,29.91,10,10,7,12,2,17,0.00,1,,303
2012-11-3,60,44,28,39,31,27,100,68,29,30.17,30.09,30.00,10,10,8,4,0,,0.00,2,,10
2012-11-4,53,44,33,41,39,32,100,80,54,30.11,30.06,30.01,10,10,10,10,2,16,0.00,0,,336
2012-11-5,53,40,26,34,30,23,100,77,30,30.15,30.09,30.03,10,9,0,5,0,,0.00,0,Fog,57
2012-11-6,48,38,28,39,34,28,100,81,62,30.05,30.00,29.93,10,10,2,9,1,,0.00,7,,145
2012-11-7,46,40,33,43,40,34,100,92,76,30.08,29.95,29.89,10,7,1,9,1,,0.03,7,Rain,294
2012-11-8,55,40,26,43,31,27,100,81,38,30.24,30.18,30.08,10,6,0,7,1,,0.00,2,Fog-Rain,296
2012-11-9,60,42,24,37,31,25,100,75,34,30.34,30.27,30.22,10,9,6,6,0,,0.00,0,,240
2012-11-10,68,48,28,41,35,28,100,69,28,30.39,30.33,30.27,10,10,9,5,0,,0.00,0,,234
2012-11-11,71,50,30,46,36,28,100,63,23,30.43,30.33,30.27,10,10,9,9,2,16,0.00,0,,157
2012-11-12,68,54,37,57,47,32,94,72,52,30.41,30.25,30.13,10,8,1,15,5,29,0.43,3,Rain,197
2012-11-13,48,37,26,30,27,23,100,71,37,30.48,30.43,30.39,10,10,6,8,2,,0.00,0,,331
2012-11-14,50,36,21,34,27,19,100,76,37,30.44,30.38,30.29,10,10,10,5,0,,0.00,0,,101
2012-11-15,57,42,26,36,30,27,100,76,38,30.34,30.29,30.24,10,10,10,4,0,,0.00,0,,147
2012-11-16,57,40,23,32,27,23,100,70,31,30.42,30.35,30.31,10,10,10,6,0,,0.00,0,,41
2012-11-17,62,43,24,32,26,21,100,68,20,30.50,30.43,30.38,10,10,10,7,1,,0.00,0,,81
2012-11-18,59,42,24,36,29,23,100,67,33,30.49,30.42,30.37,10,10,10,8,2,,0.00,0,,71
2012-11-19,59,42,26,41,34,27,100,78,42,30.39,30.31,30.22,10,10,10,4,0,,0.00,0,,320
2012-11-20,62,48,33,39,35,32,100,64,32,30.23,30.15,30.09,10,10,10,6,1,,0.00,2,,238
2012-11-21,66,50,33,41,37,32,100,70,30,30.23,30.19,30.13,10,10,8,8,1,,0.00,0,,353
2012-11-22,64,46,28,37,33,28,100,73,32,30.29,30.23,30.17,10,10,8,5,0,,0.00,0,,260
2012-11-23,51,40,28,46,34,28,100,81,53,30.19,30.12,30.04,10,10,7,14,2,22,0.00,5,,278
2012-11-24,41,30,19,28,20,18,93,61,39,30.20,30.15,30.12,10,10,10,9,5,,0.00,2,,309
2012-11-25,50,34,17,23,19,14,100,69,24,30.18,30.11,30.03,10,10,10,12,1,,0.00,0,,239
2012-11-26,55,39,23,41,27,19,100,68,31,30.24,30.17,30.12,10,10,7,5,0,,0.04,4,Rain,90
2012-11-27,44,40,37,43,38,32,100,89,75,30.30,30.21,30.13,10,8,1,9,2,,0.07,7,Rain,344
2012-11-28,46,34,23,34,27,23,100,71,40,30.44,30.38,30.28,10,10,7,8,1,,0.00,0,,268
2012-11-29,53,36,19,30,25,18,100,75,35,30.45,30.39,30.33,10,10,10,6,0,,0.00,0,,222
2012-11-30,57,40,23,39,32,23,100,81,48,30.40,30.33,30.27,10,10,7,16,1,21,0.00,0,Rain,228